UAL350 KIAD-KRDU

Flight info

Callsign UAL350
Flight time 0h 40m
Altitude 24000
Route JDUBB4 MELTN ALDAN4
Aircraft A320/M-SDE3FGHIRWY/LB1

Departure

Time 2026-05-07 00:58
Airport Washington Dulles International Airport (KIAD)

Arrival

Time 2026-05-07 01:38
Airport Raleigh-Durham International Airport (KRDU)
Time Latitude Longitude Altitude Speed Heading
2026-05-07 00:29 38.94499 -77.44800 302 ft 0 kts 353°
2026-05-07 00:50 38.94484 -77.44798 301 ft 4 kts 353°
2026-05-07 00:50 38.94457 -77.44793 300 ft 4 kts 353°
2026-05-07 00:50 38.94431 -77.44789 302 ft 4 kts 347°
2026-05-07 00:50 38.94412 -77.44776 301 ft 4 kts 282°
2026-05-07 00:51 38.94411 -77.44748 301 ft 3 kts 271°
2026-05-07 00:51 38.94410 -77.44743 303 ft 0 kts 271°
2026-05-07 00:53 38.94410 -77.44747 300 ft 2 kts 271°
2026-05-07 00:53 38.94411 -77.44790 300 ft 8 kts 271°
2026-05-07 00:53 38.94412 -77.44895 303 ft 15 kts 271°
2026-05-07 00:54 38.94414 -77.45064 300 ft 22 kts 271°
2026-05-07 00:54 38.94416 -77.45279 300 ft 24 kts 270°
2026-05-07 00:54 38.94418 -77.45492 300 ft 21 kts 270°
2026-05-07 00:54 38.94406 -77.45607 301 ft 10 kts 226°
2026-05-07 00:55 38.94322 -77.45614 302 ft 14 kts 180°
2026-05-07 00:55 38.94212 -77.45614 300 ft 17 kts 180°
2026-05-07 00:55 38.94087 -77.45617 300 ft 19 kts 180°
2026-05-07 00:55 38.93946 -77.45620 300 ft 21 kts 181°
2026-05-07 00:56 38.93790 -77.45621 301 ft 23 kts 181°
2026-05-07 00:56 38.93680 -77.45580 300 ft 16 kts 133°
2026-05-07 00:56 38.93600 -77.45497 302 ft 15 kts 176°
2026-05-07 00:56 38.93495 -77.45542 302 ft 17 kts 201°
2026-05-07 00:57 38.93383 -77.45609 298 ft 15 kts 238°
2026-05-07 00:57 38.93419 -77.45796 299 ft 43 kts 291°
2026-05-07 00:57 38.93608 -77.46434 303 ft 107 kts 291°
2026-05-07 00:57 38.93926 -77.47519 305 ft 154 kts 290°
2026-05-07 00:58 38.94332 -77.48894 667 ft 167 kts 291°
2026-05-07 00:58 38.94670 -77.50317 1308 ft 170 kts 279°
2026-05-07 00:58 38.94677 -77.51950 1593 ft 194 kts 271°
2026-05-07 00:58 38.94585 -77.53765 1940 ft 213 kts 270°
2026-05-07 00:59 38.94373 -77.57612 3478 ft 217 kts 263°
2026-05-07 00:59 38.93875 -77.59427 4320 ft 217 kts 237°
2026-05-07 00:59 38.92764 -77.60773 4871 ft 238 kts 209°
2026-05-07 01:00 38.91057 -77.61155 5362 ft 263 kts 180°
2026-05-07 01:00 38.89210 -77.60990 6169 ft 268 kts 181°
2026-05-07 01:00 38.87339 -77.60815 7010 ft 271 kts 181°
2026-05-07 01:00 38.85449 -77.60639 7825 ft 274 kts 181°
2026-05-07 01:01 38.83534 -77.60463 8634 ft 277 kts 182°
2026-05-07 01:01 38.81595 -77.60287 9434 ft 281 kts 182°
2026-05-07 01:01 38.79617 -77.60114 9887 ft 292 kts 182°
2026-05-07 01:01 38.77499 -77.59939 10007 ft 318 kts 182°
2026-05-07 01:02 38.75242 -77.59749 10210 ft 331 kts 182°
2026-05-07 01:02 38.72932 -77.59545 10863 ft 335 kts 182°
2026-05-07 01:02 38.70625 -77.59337 11515 ft 339 kts 182°
2026-05-07 01:02 38.68263 -77.59126 12195 ft 341 kts 183°
2026-05-07 01:03 38.65887 -77.58914 12880 ft 344 kts 183°
2026-05-07 01:03 38.63481 -77.58700 13522 ft 349 kts 183°
2026-05-07 01:03 38.61047 -77.58490 14117 ft 352 kts 184°
2026-05-07 01:03 38.58588 -77.58280 14689 ft 356 kts 184°
2026-05-07 01:04 38.56100 -77.58070 15199 ft 362 kts 184°
2026-05-07 01:04 38.53523 -77.57863 15308 ft 380 kts 184°
2026-05-07 01:04 38.50828 -77.57644 15436 ft 396 kts 184°
2026-05-07 01:04 38.48067 -77.57409 15636 ft 409 kts 184°
2026-05-07 01:05 38.45210 -77.57156 16072 ft 414 kts 184°
2026-05-07 01:05 38.42345 -77.57208 16541 ft 409 kts 194°
2026-05-07 01:05 38.39579 -77.57899 17047 ft 403 kts 204°
2026-05-07 01:05 38.36994 -77.59186 17553 ft 397 kts 214°
2026-05-07 01:06 38.34649 -77.60983 18092 ft 391 kts 221°
2026-05-07 01:06 38.32396 -77.62942 18562 ft 393 kts 221°
2026-05-07 01:06 38.30129 -77.64896 19027 ft 395 kts 221°
2026-05-07 01:06 38.27846 -77.66852 19478 ft 397 kts 221°
2026-05-07 01:07 38.25553 -77.68818 19795 ft 397 kts 221°
2026-05-07 01:07 38.23256 -77.70788 19850 ft 402 kts 221°
2026-05-07 01:07 38.20915 -77.72807 19888 ft 410 kts 221°
2026-05-07 01:07 38.18546 -77.74846 19884 ft 412 kts 221°
2026-05-07 01:08 38.16169 -77.76886 19880 ft 412 kts 221°
2026-05-07 01:08 38.13829 -77.78892 19878 ft 412 kts 221°
2026-05-07 01:08 38.11449 -77.80933 19889 ft 412 kts 221°
2026-05-07 01:08 38.09066 -77.82967 19917 ft 413 kts 221°
2026-05-07 01:09 38.06685 -77.84999 19909 ft 413 kts 221°
2026-05-07 01:09 38.04306 -77.87029 19914 ft 412 kts 221°
2026-05-07 01:09 38.01923 -77.89063 19886 ft 413 kts 221°
2026-05-07 01:09 37.99544 -77.91094 19887 ft 413 kts 221°
2026-05-07 01:10 37.97163 -77.93128 19886 ft 413 kts 221°
2026-05-07 01:10 37.94780 -77.95167 19862 ft 413 kts 221°
2026-05-07 01:10 37.92394 -77.97200 19868 ft 413 kts 220°
2026-05-07 01:10 37.90043 -77.99202 19870 ft 413 kts 220°
2026-05-07 01:11 37.87658 -78.01231 19869 ft 413 kts 220°
2026-05-07 01:11 37.85276 -78.03254 19873 ft 412 kts 220°
2026-05-07 01:11 37.82921 -78.05250 19895 ft 404 kts 220°
2026-05-07 01:11 37.80595 -78.07219 19891 ft 402 kts 220°
2026-05-07 01:12 37.78274 -78.09185 19888 ft 401 kts 220°
2026-05-07 01:12 37.75956 -78.11152 19885 ft 401 kts 220°
2026-05-07 01:12 37.73639 -78.13118 19885 ft 401 kts 220°
2026-05-07 01:12 37.71323 -78.15081 19884 ft 401 kts 220°
2026-05-07 01:13 37.69039 -78.17013 19887 ft 401 kts 220°
2026-05-07 01:13 37.66722 -78.18969 19890 ft 401 kts 220°
2026-05-07 01:13 37.64402 -78.20925 19895 ft 401 kts 220°
2026-05-07 01:13 37.62085 -78.22878 19898 ft 400 kts 220°
2026-05-07 01:14 37.59770 -78.24826 19866 ft 400 kts 220°
2026-05-07 01:14 37.57444 -78.26787 19897 ft 405 kts 220°
2026-05-07 01:14 37.55098 -78.28765 19908 ft 407 kts 220°
2026-05-07 01:14 37.52746 -78.30746 19911 ft 407 kts 220°
2026-05-07 01:15 37.50388 -78.32727 19918 ft 407 kts 220°
2026-05-07 01:15 37.48062 -78.34677 19919 ft 407 kts 220°
2026-05-07 01:15 37.45703 -78.36654 19923 ft 407 kts 220°
2026-05-07 01:15 37.43342 -78.38630 19925 ft 407 kts 220°
2026-05-07 01:16 37.40980 -78.40602 19925 ft 407 kts 220°
2026-05-07 01:16 37.38623 -78.42570 19923 ft 407 kts 220°
2026-05-07 01:16 37.36264 -78.44541 19899 ft 407 kts 220°
2026-05-07 01:16 37.33910 -78.46511 19899 ft 407 kts 220°
2026-05-07 01:17 37.31551 -78.48485 19898 ft 407 kts 219°
2026-05-07 01:17 37.29191 -78.50454 19897 ft 407 kts 220°
2026-05-07 01:17 37.26833 -78.52422 19897 ft 407 kts 220°
2026-05-07 01:17 37.24469 -78.54390 19889 ft 407 kts 219°
2026-05-07 01:18 37.22142 -78.56325 19891 ft 408 kts 220°
2026-05-07 01:18 37.19774 -78.58296 19891 ft 408 kts 220°
2026-05-07 01:18 37.17414 -78.60260 19892 ft 408 kts 220°
2026-05-07 01:18 37.15046 -78.62227 19890 ft 409 kts 220°
2026-05-07 01:19 37.12672 -78.64201 19895 ft 410 kts 220°
2026-05-07 01:19 37.10294 -78.66178 19902 ft 410 kts 220°
2026-05-07 01:19 37.07913 -78.68155 19915 ft 410 kts 220°
2026-05-07 01:19 37.05534 -78.70125 19923 ft 410 kts 220°
2026-05-07 01:20 37.03157 -78.72088 19927 ft 409 kts 220°
2026-05-07 01:20 37.00782 -78.74047 19928 ft 409 kts 220°
2026-05-07 01:20 36.98443 -78.75977 19930 ft 408 kts 220°
2026-05-07 01:20 36.96075 -78.77932 19928 ft 408 kts 220°
2026-05-07 01:21 36.93711 -78.79884 19897 ft 407 kts 220°
2026-05-07 01:21 36.91347 -78.81835 19906 ft 407 kts 220°
2026-05-07 01:21 36.88980 -78.83789 19909 ft 408 kts 220°
2026-05-07 01:21 36.86623 -78.85729 19814 ft 400 kts 220°
2026-05-07 01:22 36.84344 -78.87598 19581 ft 385 kts 220°
2026-05-07 01:22 36.82144 -78.89401 19342 ft 373 kts 220°
2026-05-07 01:22 36.80035 -78.91132 19118 ft 363 kts 220°
2026-05-07 01:22 36.77954 -78.92842 18884 ft 353 kts 221°
2026-05-07 01:23 36.75933 -78.94500 18655 ft 343 kts 221°
2026-05-07 01:23 36.73952 -78.96123 18392 ft 339 kts 221°
2026-05-07 01:23 36.71991 -78.97734 17941 ft 336 kts 221°
2026-05-07 01:23 36.70039 -78.99314 17515 ft 336 kts 217°
2026-05-07 01:24 36.67848 -79.00427 17066 ft 347 kts 201°
2026-05-07 01:24 36.65412 -79.00723 16577 ft 360 kts 184°
2026-05-07 01:24 36.62913 -79.00166 16057 ft 368 kts 174°
2026-05-07 01:24 36.60458 -78.99436 15541 ft 367 kts 174°
2026-05-07 01:25 36.57976 -78.98698 15062 ft 366 kts 173°
2026-05-07 01:25 36.55529 -78.97972 14778 ft 358 kts 173°
2026-05-07 01:25 36.53166 -78.97271 14624 ft 338 kts 174°
2026-05-07 01:25 36.50937 -78.96608 14253 ft 324 kts 174°
2026-05-07 01:26 36.48764 -78.95975 13709 ft 318 kts 174°
2026-05-07 01:26 36.46622 -78.95361 13054 ft 314 kts 173°
2026-05-07 01:26 36.44506 -78.94759 12414 ft 310 kts 173°
2026-05-07 01:26 36.42420 -78.94164 11853 ft 305 kts 173°
2026-05-07 01:27 36.40438 -78.93340 11468 ft 309 kts 160°
2026-05-07 01:27 36.38612 -78.91875 11099 ft 318 kts 144°
2026-05-07 01:27 36.37034 -78.89923 10713 ft 321 kts 140°
2026-05-07 01:27 36.35474 -78.87930 10325 ft 322 kts 140°
2026-05-07 01:28 36.33911 -78.85939 9932 ft 323 kts 140°
2026-05-07 01:28 36.32357 -78.83956 9506 ft 316 kts 140°
2026-05-07 01:28 36.30859 -78.82040 9133 ft 303 kts 140°
2026-05-07 01:28 36.29418 -78.80198 8761 ft 293 kts 140°
2026-05-07 01:29 36.28014 -78.78425 8390 ft 283 kts 140°
2026-05-07 01:29 36.26656 -78.76712 8036 ft 275 kts 140°
2026-05-07 01:29 36.25343 -78.75049 7690 ft 265 kts 140°
2026-05-07 01:29 36.24074 -78.73437 7348 ft 257 kts 140°
2026-05-07 01:30 36.22846 -78.71882 7031 ft 256 kts 140°
2026-05-07 01:30 36.21598 -78.70308 6705 ft 256 kts 140°
2026-05-07 01:30 36.20349 -78.68735 6374 ft 256 kts 140°
2026-05-07 01:30 36.19095 -78.67160 6044 ft 255 kts 143°
2026-05-07 01:31 36.17668 -78.66024 5823 ft 238 kts 166°
2026-05-07 01:31 36.16123 -78.65341 5552 ft 234 kts 170°
2026-05-07 01:31 36.14583 -78.64731 5262 ft 232 kts 170°
2026-05-07 01:31 36.13050 -78.64144 4991 ft 229 kts 170°
2026-05-07 01:32 36.11530 -78.63561 4708 ft 228 kts 171°
2026-05-07 01:32 36.10047 -78.62982 4462 ft 225 kts 170°
2026-05-07 01:32 36.08558 -78.62401 4172 ft 223 kts 170°
2026-05-07 01:32 36.07078 -78.61834 3911 ft 222 kts 170°
2026-05-07 01:33 36.05611 -78.61285 3692 ft 218 kts 173°
2026-05-07 01:33 36.04146 -78.61140 3403 ft 207 kts 193°
2026-05-07 01:33 36.02805 -78.61629 3098 ft 199 kts 213°
2026-05-07 01:33 36.01699 -78.62566 2981 ft 186 kts 224°
2026-05-07 01:34 36.00790 -78.63664 2982 ft 178 kts 228°
2026-05-07 01:34 35.99963 -78.64695 2992 ft 163 kts 227°
2026-05-07 01:34 35.99195 -78.65641 2957 ft 151 kts 227°
2026-05-07 01:34 35.98464 -78.66552 2797 ft 146 kts 227°
2026-05-07 01:35 35.97763 -78.67420 2643 ft 143 kts 227°
2026-05-07 01:35 35.97060 -78.68292 2478 ft 143 kts 226°
2026-05-07 01:35 35.96360 -78.69158 2292 ft 142 kts 227°
2026-05-07 01:35 35.95664 -78.70024 2114 ft 142 kts 226°
2026-05-07 01:36 35.94969 -78.70885 1936 ft 141 kts 226°
2026-05-07 01:36 35.94277 -78.71743 1748 ft 141 kts 225°
2026-05-07 01:36 35.93585 -78.72601 1568 ft 141 kts 225°
2026-05-07 01:36 35.92892 -78.73461 1371 ft 141 kts 225°
2026-05-07 01:37 35.92205 -78.74310 1171 ft 143 kts 225°
2026-05-07 01:37 35.91509 -78.75173 998 ft 142 kts 225°
2026-05-07 01:37 35.90806 -78.76045 805 ft 144 kts 223°
2026-05-07 01:37 35.90092 -78.76927 625 ft 146 kts 224°
2026-05-07 01:38 35.89372 -78.77823 427 ft 147 kts 222°
2026-05-07 01:38 35.88709 -78.78636 393 ft 113 kts 225°
2026-05-07 01:38 35.88254 -78.79198 391 ft 78 kts 225°
2026-05-07 01:38 35.88029 -78.79465 394 ft 26 kts 208°
2026-05-07 01:39 35.87919 -78.79454 392 ft 9 kts 156°
2026-05-07 01:39 35.87911 -78.79450 392 ft 0 kts 156°
2026-05-07 01:40 35.87901 -78.79451 392 ft 6 kts 187°
2026-05-07 01:40 35.87847 -78.79512 392 ft 13 kts 227°
2026-05-07 01:40 35.87774 -78.79601 392 ft 16 kts 224°
2026-05-07 01:40 35.87689 -78.79706 391 ft 19 kts 225°
2026-05-07 01:41 35.87600 -78.79815 391 ft 13 kts 224°
2026-05-07 01:41 35.87532 -78.79813 391 ft 12 kts 131°
2026-05-07 01:41 35.87474 -78.79738 392 ft 9 kts 134°
2026-05-07 01:41 35.87448 -78.79706 392 ft 0 kts 135°
2026-05-07 01:42 35.87447 -78.79705 392 ft 1 kts 135°
2026-05-07 01:42 35.87432 -78.79688 392 ft 5 kts 137°
2026-05-07 01:42 35.87424 -78.79654 392 ft 4 kts 46°
2026-05-07 01:42 35.87462 -78.79639 392 ft 7 kts 17°
2026-05-07 01:43 35.87479 -78.79632 392 ft 0 kts 19°